Regional Weather Roundup
Issued by NWS

Home | Current Version | Previous Version | Text Only | Print | Product List | Glossary On
Versions: 1 2 3 4 5 6 7 8 9 10 11 12 13 14 15 16 17 18 19 20 21 22 23 24 25 26 27 28 29 30 31 32 33 34 35 36 37 38 39 40 41 42 43 44 45 46 47 48 49 50
000
ASUS42 KTBW 240616
RWRFL
FLORIDA REGIONAL WEATHER ROUNDUP
NATIONAL WEATHER SERVICE TAMPA BAY RUSKIN FL
200 AM EDT SUN JUL 24 2016

NOTE: "FAIR" INDICATES FEW OR NO CLOUDS BELOW 12,000 FEET WITH NO
SIGNIFICANT WEATHER AND/OR OBSTRUCTIONS TO VISIBILITY.

FLZ001>010-012>015-112-114-115-240700-
PANHANDLE FLORIDA

CITY           SKY/WX    TMP DP  RH WIND       PRES   REMARKS
PENSACOLA      CLOUDY    80  74  81 CALM      29.99F
PENSACOLA NAS  MOCLDY    79  74  84 CALM      29.98F
MILTON NAS     MOCLDY    75  75 100 CALM      30.00
CRESTVIEW      PTCLDY    75  73  93 CALM      30.02S
DUKE FIELD     FAIR      75  73  92 CALM      30.00S
VALPARAISO     MOCLDY    79  74  83 N2        30.00S
MARY ESTHER    PTCLDY    77  74  92 N3        29.99S
PANAMA CITY    FAIR      79  76  90 CALM      29.99F
TYNDALL AFB    CLEAR     80  76  89 E3        30.00F
APALACHICOLA   MOCLDY    80  79  96 CALM      30.00F

STATION/POSITION SKY/WX   TEMP    WIND        PRES    WAVE   SWELL
                          AIR SEA DIR/SP/G            HT/PER HT/PER
                          (F)     (DEG/KT/KT) (MB)    (FT/S) (FT/S)
30.1N   87.6W              85 89  190/  4/  6 1015.7F   1
29.2N   88.2W              84 88  210/  4/  8 1015.5S
28.8N   86.0W              84 88  180/  2/  4 1016.1F   1/ 5
PANAMA CITY BEAC           85 88  140/  6/  7 1016.4F
TOWER C                    84     180/  8/  9 1016.7F
28.5N   84.5W              84 88  200/ 12/ 14 1016.0F   2/ 4

$$
FLZ011-016>038-118-127-128-134-139-239-240700-
NORTH FLORIDA

CITY           SKY/WX    TMP DP  RH WIND       PRES   REMARKS
MARIANNA       PTCLDY    77  73  87 S3        30.00F
TALLAHASSEE    PTCLDY    78  75  90 CALM        N/A
PERRY          PTCLDY    78  75  91 CALM      30.03F
LIVE OAK         N/A     77  77 100 CALM      30.05F
CROSS CITY       N/A     77  72  84 CALM      30.02F
LAKE CITY      FAIR      73  68  83 CALM      30.04F
GAINESVILLE    PTCLDY    73  69  87 CALM      30.05R
WILLISTON      FAIR      75  72  88 E3        30.05S
PALATKA        FAIR      73  73 100 CALM      30.05S
MAYPORT NAS    CLEAR     79  73  82 S5        30.03F
JACKSONVILLE   PTCLDY    78  74  87 S5        30.02F
JAX NAS        PTCLDY    84  73  69 S8        30.04F
JAX CECIL      PTCLDY    73  72  94 CALM      30.03F
FERNANDINA BEA FAIR      84  75  74 S9        30.02F
ST AUGUSTINE   CLEAR     78  73  84 S5        30.04F
PALM COAST     FAIR      74  74  98 SW3       30.04F

STATION/POSITION SKY/WX   TEMP    WIND        PRES    WAVE   SWELL
                          AIR SEA DIR/SP/G            HT/PER HT/PER
                          (F)     (DEG/KT/KT) (MB)    (FT/S) (FT/S)
SHELL POINT                82     310/  3/  5 1015.6
KEATON BEACH               79      90/  2/  2 1016.2F
CEDAR KEY                  82      30/  6/  8 1017.0F
FERNANDINA                 83 89  170/  5/  8 1016.9F
30.7N   81.3W                 86                N/A     3/ 4
MAYPORT                    81 87  200/  6/  9 1017.5F
31.4N   80.9W              85 86  180/ 14/ 16 1016.8R   2/10   2/10
ST AUGUSTINE               79 87  210/  6/  7 1018.0F

$$
FLZ040-043>046-052-053-057-058-063-144-240700-
INTERIOR CENTRAL FLORIDA

CITY           SKY/WX    TMP DP  RH WIND       PRES   REMARKS
OCALA          CLEAR     73  68  83 CALM      30.05S
THE VILLAGES     N/A     75  73  94 CALM      29.95S
LEESBURG       CLEAR     79  72  79 S5        30.05F
SANFORD        CLEAR     78  71  79 SE5       30.05S
ORLANDO EXEC   CLEAR     76  73  91 SE5       30.05S
ORLANDO INTL   PTCLDY    77  72  84 SE5       30.05F
KISSIMMEE      CLEAR     79  73  82 CALM      30.06S
WINTER HAVEN   CLEAR     79  73  82 SW5       30.05F
LAKELAND       CLEAR     73  72  94 CALM      30.04F
BARTOW         FAIR      75  75 100 CALM      30.05F
OKEECHOBEE     CLEAR     73  72  94 CALM      30.04S

$$
FLZ041-047-054-059-064-141-147-240700-
EAST CENTRAL FLORIDA

CITY           SKY/WX    TMP DP  RH WIND       PRES   REMARKS
DAYTONA BEACH  PTCLDY    75  73  93 SW3       30.05F
JFK SPACE CTR  CLEAR     78  73  86 NW3       30.04S
CAPE CANAVERAL CLEAR     80  74  82 SW2       30.03S
PATRICK AFB    CLEAR     81  74  80 S5        30.03F
MELBOURNE      CLEAR     77  73  87 CALM      30.04F
VERO BEACH     CLEAR     77  73  87 CALM      30.03F
FT PIERCE      CLEAR     74  72  93 CALM      30.03F
STUART         PTCLDY    79  72  78 SW5       30.06R

STATION/POSITION SKY/WX   TEMP    WIND        PRES    WAVE   SWELL
                          AIR SEA DIR/SP/G            HT/PER HT/PER
                          (F)     (DEG/KT/KT) (MB)    (FT/S) (FT/S)
28.5N   80.2W              84 86  160/  6/  8 1017.7F
28.9N   78.5W              84 86  210/  4/  6 1017.4F
TRIDENT PIER               82 88  160/  6/ 10 1017.4F
28.4N   80.5W                 86                N/A     2/ 9
27.5N   80.2W                 85                N/A     2/ 8

$$
FLZ050-056-061-142-242-148-248-149-249-151-251-155-255-
160-260-240700-
WEST CENTRAL FLORIDA

CITY           SKY/WX    TMP DP  RH WIND       PRES   REMARKS
CRYSTAL RIVER  FAIR      75  72  88 CALM      30.04S
INVERNESS      MOCLDY    75  73  94 CALM      30.05S
BROOKSVILLE    CLEAR     76  74  93 E3        30.05F
ZEPHYRHILLS    FAIR      59  58  97 CALM      30.04F
CLEARWATER AIR HVY RAIN  79  75  89 SE9       30.03S
ST PETE CLEARW TSTM      76  71  85 SE7       30.05R
TAMPA INTL     MOCLDY    77  74  90 NW7       30.04F
TAMPA EXEC     CLEAR     77  72  83 CALM      30.04F
PLANT CITY       N/A    N/A N/A N/A MISG        N/A
MACDILL AFB    CLOUDY    80  78  94 SE6       30.03F
PETER O KNIGHT PTCLDY    81  75  83 CALM      30.04F
ST PETERSBURG  TSTM      81  75  82 S12       30.01F
SARASOTA       PTCLDY    78  73  84 E3        30.03S
VENICE         NOT AVBL

STATION/POSITION SKY/WX   TEMP    WIND        PRES    WAVE   SWELL
                          AIR SEA DIR/SP/G            HT/PER HT/PER
                          (F)     (DEG/KT/KT) (MB)    (FT/S) (FT/S)
27.3N   84.2W                 86                N/A     1/ 4
CLEARWATER BEACH           83 88  110/  4/  5 1017.2S
MIDDLE TAMPA BAY                  150/ 10/ 10 1017.6F
VENICE                     80 87  120/  6/  8 1016.8F

$$
FLZ066-069-070-075>078-162-262-165-265-240700-
SOUTHWEST FLORIDA AND KEYS

CITY           SKY/WX    TMP DP  RH WIND       PRES   REMARKS
PUNTA GORDA    TSTM      75  73  93 W12       30.07R FOG
FT MYERS       LGT RAIN  72  71  97 SE3       30.05S
SOUTHWEST INTL LGT RAIN  75  72  90 W7        30.06S
NAPLES         TSTM      76  76 100 N10       30.06R FOG
MARCO ISLAND   CLEAR     79  72  78 N3        30.05R
MARATHON       CLOUDY    81  78  91 CALM      30.00F
KEY WEST NAS   CLOUDY    82  75  79 CALM      30.02S
KEY WEST INTL  MOCLDY    82  77  84 CALM      30.02S

STATION/POSITION SKY/WX   TEMP    WIND        PRES    WAVE   SWELL
                          AIR SEA DIR/SP/G            HT/PER HT/PER
                          (F)     (DEG/KT/KT) (MB)    (FT/S) (FT/S)
NAPLES                        87              1017.4R
26.0N   85.6W              81 86  160/ 10/ 14 1016.5S   1/ 4
DRY TORTUGAS               84     120/  3/  4 1016.3F
SAND KEY                   81      CALM  /  2 1017.1F
LONG KEY                   83 87   60/  8/  9 1016.4F

$$
FLZ067-068-071>074-168-172>174-240700-
SOUTHEAST FLORIDA

CITY           SKY/WX    TMP DP  RH WIND       PRES   REMARKS
W PALM BEACH   CLOUDY    76  71  85 CALM      30.05F
FT LAUDER-EXEC PTCLDY    78  71  79 CALM      30.04R
FT LAUDERDALE  CLOUDY    78  71  79 CALM      30.03S
POMPANO BEACH  PTCLDY    77  72  84 N3        30.04R
PEMBROKE PINES CLOUDY    77  73  87 N7        30.05S
OPA LOCKA      CLOUDY    79  73  82 CALM      30.04R
MIAMI          MOCLDY    77  73  87 CALM      30.04S
WEST KENDALL   CLOUDY    75  74  96 CALM      30.03F
HOMESTEAD      CLOUDY    78  76  94 VRB1      30.02F

STATION/POSITION SKY/WX   TEMP    WIND        PRES    WAVE   SWELL
                          AIR SEA DIR/SP/G            HT/PER HT/PER
                          (F)     (DEG/KT/KT) (MB)    (FT/S) (FT/S)
PORT EVERGLADES            79     270/  2/  3 1016.8F
VIRGINIA KEY               82 88   CALM  /  1 1017.3F
LAKE WORTH                        260/  5/  7   N/A
FOWEY ROCKS                82 84     CALM     1017.4F
SETTLEMENT POINT           82     130/  2/  3 1017.7F

$$




USA.gov is the U.S. government's official web portal to all federal, state and local government web resources and services.